When you browse on this site, cookies collect data to enhance your experience and personalize the content and advertising you see.
Visit our Privacy Policy to learn more. By continuing to use the site, you agree to this use of cookies and data.
  • En España
  • Lista de países
  • Para 7 días
  • Temperatura del agua
  • El tiempo en el mapa
  • Informadores
  • user-avatar
    Iniciar sesión

    Tiempo cada hora Astana

    Hoy, 29 Mayo, Viernes

    Tiempo Temperatura Precipitaciones Viento Presión Humedad
    00:00 +17°C° 0 mm 2 mps 733 mmHg 37%
    01:00 +16°C° 0 mm 2 mps 733 mmHg 38%
    02:00 +16°C° 0 mm 2 mps 733 mmHg 39%
    03:00 +15°C° 0 mm 2 mps 733 mmHg 40%
    04:00 +15°C° 0 mm 2 mps 732 mmHg 42%
    05:00 +15°C° 0 mm 2 mps 732 mmHg 45%
    06:00 +17°C° 0 mm 2 mps 732 mmHg 41%
    07:00 +19°C° 0 mm 2 mps 732 mmHg 38%
    08:00 +21°C° 0 mm 2 mps 732 mmHg 34%
    09:00 +24°C° 0 mm 2 mps 732 mmHg 30%
    10:00 +25°C° 0 mm 2 mps 732 mmHg 27%
    11:00 +27°C° 0 mm 3 mps 732 mmHg 23%
    12:00 +28°C° 0 mm 3 mps 732 mmHg 22%
    13:00 +29°C° 0 mm 3 mps 731 mmHg 21%
    14:00 +30°C° 0 mm 3 mps 731 mmHg 20%
    15:00 +30°C° 0 mm 3 mps 731 mmHg 20%
    16:00 +30°C° 0 mm 3 mps 730 mmHg 21%
    17:00 +30°C° 0 mm 3 mps 730 mmHg 21%
    18:00 +28°C° 0 mm 3 mps 730 mmHg 26%
    19:00 +26°C° 0 mm 3 mps 729 mmHg 32%
    20:00 +25°C° 0 mm 3 mps 729 mmHg 37%
    21:00 +22°C° 0 mm 3 mps 729 mmHg 43%
    22:00 +21°C° 0 mm 4 mps 729 mmHg 49%
    23:00 +19°C° 0 mm 4 mps 729 mmHg 55%

    Mañana, 30 Mayo, Sábado

    Tiempo Temperatura Precipitaciones Viento Presión Humedad
    00:00 +19°C° 0 mm 4 mps 729 mmHg 66%
    01:00 +18°C° 0 mm 3 mps 729 mmHg 76%
    02:00 +17°C° 0 mm 3 mps 730 mmHg 87%
    03:00 +17°C° 0 mm 3 mps 730 mmHg 85%
    04:00 +16°C° 0 mm 3 mps 730 mmHg 83%
    05:00 +16°C° 0 mm 2 mps 730 mmHg 82%
    06:00 +18°C° 0 mm 3 mps 730 mmHg 73%
    07:00 +19°C° 0 mm 4 mps 731 mmHg 65%
    08:00 +20°C° 0 mm 4 mps 731 mmHg 56%
    09:00 +21°C° 0 mm 4 mps 731 mmHg 51%
    10:00 +22°C° 0 mm 3 mps 731 mmHg 46%
    11:00 +25°C° 0 mm 3 mps 731 mmHg 41%
    12:00 +25°C° 0 mm 3 mps 731 mmHg 36%
    13:00 +26°C° 0 mm 3 mps 731 mmHg 32%
    14:00 +27°C° 0 mm 3 mps 731 mmHg 28%
    15:00 +27°C° 0 mm 3 mps 731 mmHg 27%
    16:00 +27°C° 0 mm 3 mps 731 mmHg 25%
    17:00 +28°C° 0 mm 3 mps 731 mmHg 24%
    18:00 +26°C° 0 mm 2 mps 731 mmHg 28%
    19:00 +24°C° 0 mm 2 mps 730 mmHg 32%
    20:00 +23°C° 0 mm 2 mps 730 mmHg 36%
    21:00 +21°C° 0 mm 2 mps 730 mmHg 38%
    22:00 +20°C° 0 mm 2 mps 730 mmHg 40%
    23:00 +19°C° 0 mm 3 mps 731 mmHg 42%

    Pasado mañana, 31 Mayo, Domingo

    Tiempo Temperatura Precipitaciones Viento Presión Humedad
    00:00 +18°C° 0 mm 3 mps 730 mmHg 44%
    01:00 +18°C° 0 mm 3 mps 730 mmHg 45%
    02:00 +17°C° 0 mm 3 mps 730 mmHg 47%
    03:00 +17°C° 0 mm 3 mps 730 mmHg 47%
    04:00 +17°C° 0 mm 3 mps 730 mmHg 48%
    05:00 +17°C° 0 mm 3 mps 730 mmHg 49%
    06:00 +19°C° 0 mm 3 mps 730 mmHg 46%
    07:00 +21°C° 0 mm 3 mps 729 mmHg 44%
    08:00 +23°C° 0 mm 4 mps 729 mmHg 42%
    09:00 +26°C° 0 mm 4 mps 729 mmHg 39%
    10:00 +29°C° 0 mm 5 mps 729 mmHg 36%
    11:00 +32°C° 0 mm 6 mps 729 mmHg 33%
    12:00 +34°C° 0 mm 6 mps 728 mmHg 28%
    13:00 +35°C° 0 mm 7 mps 728 mmHg 23%
    14:00 +38°C° 0 mm 8 mps 727 mmHg 18%
    15:00 +38°C° 0 mm 7 mps 727 mmHg 18%
    16:00 +36°C° 0 mm 7 mps 726 mmHg 19%
    17:00 +36°C° 0 mm 7 mps 726 mmHg 19%
    18:00 +34°C° 0 mm 6 mps 725 mmHg 23%
    19:00 +32°C° 0 mm 5 mps 725 mmHg 27%
    20:00 +29°C° 0 mm 4 mps 725 mmHg 30%
    21:00 +28°C° 0 mm 4 mps 725 mmHg 32%
    22:00 +27°C° 0 mm 4 mps 725 mmHg 34%
    23:00 +26°C° 0 mm 3 mps 725 mmHg 36%

    1 Junio, Lunes

    Tiempo Temperatura Precipitaciones Viento Presión Humedad
    00:00 +25°C° 0 mm 4 mps 725 mmHg 38%
    01:00 +25°C° 0 mm 4 mps 725 mmHg 40%
    02:00 +23°C° 0 mm 4 mps 725 mmHg 42%
    03:00 +25°C° 0 mm 4 mps 725 mmHg 43%
    04:00 +25°C° 0 mm 3 mps 725 mmHg 43%
    05:00 +25°C° 0 mm 3 mps 725 mmHg 44%
    06:00 +26°C° 0 mm 4 mps 725 mmHg 42%
    07:00 +28°C° 0 mm 4 mps 726 mmHg 39%
    08:00 +29°C° 0 mm 4 mps 726 mmHg 36%
    09:00 +32°C° 0 mm 4 mps 726 mmHg 34%
    10:00 +33°C° 0 mm 5 mps 726 mmHg 31%
    11:00 +35°C° 0 mm 5 mps 726 mmHg 28%
    12:00 +35°C° 0 mm 6 mps 726 mmHg 27%
    13:00 +35°C° 0 mm 7 mps 726 mmHg 25%
    14:00 +37°C° 0 mm 8 mps 726 mmHg 24%
    15:00 +35°C° 0 mm 8 mps 726 mmHg 26%
    16:00 +34°C° 0 mm 8 mps 726 mmHg 28%
    17:00 +33°C° 0 mm 8 mps 726 mmHg 31%
    18:00 +32°C° 0 mm 6 mps 726 mmHg 35%
    19:00 +29°C° 0 mm 5 mps 726 mmHg 39%
    20:00 +27°C° 0 mm 3 mps 726 mmHg 44%
    21:00 +26°C° 0 mm 3 mps 726 mmHg 45%
    22:00 +25°C° 0 mm 3 mps 726 mmHg 45%
    23:00 +24°C° 0 mm 2 mps 726 mmHg 46%

    2 Junio, Martes

    Tiempo Temperatura Precipitaciones Viento Presión Humedad
    00:00 +23°C° 0.1 mm 2 mps 726 mmHg 51%
    01:00 +21°C° 0.1 mm 2 mps 727 mmHg 55%
    02:00 +20°C° 0.1 mm 2 mps 727 mmHg 60%
    03:00 +20°C° 0.6 mm 2 mps 727 mmHg 66%
    04:00 +19°C° 0.6 mm 2 mps 727 mmHg 72%
    05:00 +19°C° 0.6 mm 2 mps 727 mmHg 78%
    06:00 +20°C° 0 mm 2 mps 727 mmHg 70%
    07:00 +21°C° 0 mm 3 mps 728 mmHg 63%
    08:00 +24°C° 0 mm 3 mps 728 mmHg 55%
    09:00 +25°C° 0 mm 3 mps 728 mmHg 50%
    10:00 +27°C° 0 mm 4 mps 728 mmHg 45%
    11:00 +28°C° 0 mm 4 mps 728 mmHg 40%
    12:00 +29°C° 0 mm 4 mps 728 mmHg 37%
    13:00 +29°C° 0 mm 4 mps 728 mmHg 33%
    14:00 +30°C° 0 mm 3 mps 728 mmHg 30%
    15:00 +30°C° 0 mm 3 mps 727 mmHg 28%
    16:00 +31°C° 0 mm 3 mps 727 mmHg 26%
    17:00 +32°C° 0 mm 4 mps 727 mmHg 24%
    18:00 +29°C° 0 mm 3 mps 727 mmHg 28%
    19:00 +27°C° 0 mm 3 mps 727 mmHg 31%
    20:00 +26°C° 0 mm 2 mps 726 mmHg 35%
    21:00 +24°C° 0 mm 2 mps 726 mmHg 36%
    22:00 +23°C° 0 mm 2 mps 726 mmHg 37%
    23:00 +21°C° 0 mm 2 mps 726 mmHg 38%

    3 Junio, Miércoles

    Tiempo Temperatura Precipitaciones Viento Presión Humedad
    00:00 +21°C° 0 mm 2 mps 726 mmHg 40%
    01:00 +20°C° 0 mm 2 mps 726 mmHg 42%
    02:00 +19°C° 0 mm 2 mps 726 mmHg 45%
    03:00 +19°C° 0 mm 2 mps 726 mmHg 47%
    04:00 +19°C° 0 mm 2 mps 726 mmHg 49%
    05:00 +18°C° 0 mm 2 mps 726 mmHg 51%
    06:00 +20°C° 0 mm 2 mps 726 mmHg 49%
    07:00 +22°C° 0 mm 3 mps 726 mmHg 47%
    08:00 +24°C° 0 mm 3 mps 726 mmHg 45%
    09:00 +26°C° 0 mm 3 mps 726 mmHg 41%
    10:00 +27°C° 0 mm 3 mps 726 mmHg 37%
    11:00 +28°C° 0 mm 3 mps 727 mmHg 33%
    12:00 +29°C° 0 mm 3 mps 726 mmHg 31%
    13:00 +29°C° 0 mm 3 mps 726 mmHg 29%
    14:00 +30°C° 0 mm 3 mps 726 mmHg 27%
    15:00 +29°C° 0 mm 3 mps 726 mmHg 28%
    16:00 +29°C° 0 mm 4 mps 726 mmHg 28%
    17:00 +29°C° 0 mm 4 mps 726 mmHg 28%
    18:00 +27°C° 0 mm 5 mps 726 mmHg 36%
    19:00 +25°C° 0 mm 5 mps 726 mmHg 43%
    20:00 +22°C° 0 mm 6 mps 726 mmHg 50%
    21:00 +20°C° 0 mm 6 mps 726 mmHg 53%
    22:00 +19°C° 0 mm 6 mps 726 mmHg 56%
    23:00 +16°C° 0 mm 6 mps 727 mmHg 59%
    Mostrar más